Regional Weather Roundup
Issued by NWS

Home | Current Version | Previous Version | Graphics & Text | Print | Product List | Glossary On
Versions: 1 2 3 4 5 6 7 8 9 10 11 12 13 14 15 16 17 18 19 20 21 22 23 24 25 26 27 28 29 30 31 32 33 34 35 36 37 38 39 40 41 42 43 44 45 46 47 48 49 50
000
ASUS43 KDTX 020410
RWRMI
MICHIGAN HOURLY REGIONAL WEATHER ROUNDUP
NATIONAL WEATHER SERVICE DETROIT/PONTIAC MI
1200 AM EDT SAT AUG 02 2014

NOTE: "FAIR" INDICATES FEW OR NO CLOUDS BELOW 12,000 FEET WITH NO
SIGNIFICANT WEATHER AND/OR OBSTRUCTION TO VISIBILITY.

MIZ047>049-052>055-059>063-066>070-074>076-081>083-020500-
SOUTHEAST LOWER MICHIGAN

CITY           SKY/WX    TMP DP  RH WIND       PRES   REMARKS
ADRIAN         PTCLDY    63  62  97 CALM      30.11F FOG
ALMA           PTCLDY    61  58  90 CALM      30.11S
ANN ARBOR      MOCLDY    64  59  83 S3        30.10S
BAD AXE        MOCLDY    63  62  98 SE3       30.12S FOG
CARO           CLOUDY    65  64  96 CALM      30.11R
DETROIT CITY   PTCLDY    73  62  68 CALM      30.09S
DETROIT        MOCLDY    70  62  76 SE5       30.10F
FLINT          MOCLDY    65  57  75 MISG      30.11S
GROSSE ILE     PTCLDY    68  64  88 CALM      30.09S
HILLSDALE      MOCLDY    60  60 100 CALM      30.12S
HOWELL         MOCLDY    64  58  82 CALM      30.11S

CITY           SKY/WX    TMP DP  RH WIND       PRES   REMARKS
JACKSON        MOCLDY    64  58  80 CALM      30.11S
LAMBERTVILLE   PTCLDY    64  61  88 CALM      30.10F FOG
LANSING        PTCLDY    58  55  90 CALM      30.12S
LAPEER         FAIR      65  62  88 CALM      30.11S
MASON          MOCLDY    60  56  88 CALM      30.11F
MONROE         PTCLDY    63  61  94 CALM      30.08F FOG
MT. CLEMENS    PTCLDY    68  63  85 E5        30.09S FOG
PONTIAC        CLOUDY    67  61  81 CALM      30.10F
PORT HOPE        N/A     66  63  90 S3        30.09F
PORT HURON     PTCLDY    63  61  94 CALM      30.10F FOG
TRI CITIES     PTCLDY    64  61  90 SE6       30.11R
TROY           MOCLDY    71  64  77 CALM      30.11S
SAGINAW HB     MOCLDY    64  61  88 S5        30.10S
$$
MIZ043>046-050>051-056>058-064>065-071>073-077>080-020500-
SOUTHWEST LOWER MICHIGAN

CITY           SKY/WX    TMP DP  RH WIND       PRES   REMARKS
BATTLE CREEK   PTCLDY    63  57  81 SW3       30.11S
BENTON HARBOR  PTCLDY    61  59  93 CALM      30.11S FOG
BIG RAPIDS     PTCLDY   N/A N/A N/A CALM      30.11S FOG
COLDWATER      MOCLDY    64  62  93 CALM      30.11S
FREMONT        FAIR      61  60  97 SE5       30.11S
HOLLAND        PTCLDY    64  59  83 CALM      30.12S
GRAND RAPIDS   PTCLDY    65  58  78 CALM      30.11S
IONIA          FAIR      61  58  91 NW6       30.10R
KALAMAZOO      PTCLDY    61  58  90 SW3       30.11S
LUDINGTON      PTCLDY    59  57  92 CALM      30.10S
MARSHALL       PTCLDY    61  57  86 CALM      30.10S
MOUNT PLEASANT PTCLDY    62  58  87 CALM      30.09S
MUSKEGON       PTCLDY    63  60  90 CALM      30.11S FOG
SOUTH HAVEN    PTCLDY    61  61 100 CALM      30.11S FOG
$$
MIZ016>042-020500-
NORTHERN LOWER MICHIGAN

CITY           SKY/WX    TMP DP  RH WIND       PRES   REMARKS
ALPENA         MOCLDY    62  58  86 SW5       30.13S
BEAVER ISLAND  PTCLDY    64  56  77 E5        30.12S
BELLAIRE       PTCLDY    62  57  85 CALM      30.09S
CADILLAC       PTCLDY    58  57  98 CALM      30.12S FOG
CHARLEVOIX     MOCLDY    69  55  60 E6        30.13F
FRANKFORT      PTCLDY    58  55  88 CALM      30.10S
GAYLORD        PTCLDY    64  58  80 SE5       30.12S
GRAYLING       PTCLDY    59  58  98 CALM      30.12S
HARBOR SPRINGS PTCLDY    66  53  63 NE6       30.11S
HOUGHTON LAKE  PTCLDY    61  59  93 E3        30.12F
MANISTEE       PTCLDY    61  57  88 E3        30.10F
OSCODA         MOCLDY    58  57  97 CALM      30.11R FOG
PELLSTON       MOCLDY    56  54  93 CALM      30.12S
ROGERS CITY    MOCLDY    62  57  86 CALM      30.13S
TRAVERSE CITY  PTCLDY    61  56  83 CALM      30.09S
$$
MIZ007>008-015-020500-
EASTERN UPPER MICHIGAN

CITY           SKY/WX    TMP DP  RH WIND       PRES   REMARKS
KINROSS        PTCLDY    57  54  88 N6        30.13S
MACKINAC ISLAN CLOUDY    62  51  66 E7        30.12S
NEWBERRY       PTCLDY    54  51  90 E3        30.13S
S. S. MARIE    CLEAR     55  49  80 CALM      30.12S
MUNISING         N/A     58  54  86 S3        30.12S
$$
MIZ004>006-011>014-085-020500-
CENTRAL UPPER MICHIGAN

CITY           SKY/WX    TMP DP  RH WIND       PRES   REMARKS
MANISTIQUE     MOCLDY    59  53  79 N3        30.12R
ESCANABA       PTCLDY    59  54  82 CALM      30.11S
MENOMINEE      CLEAR     64  59  82 N3        30.08S
SAWYER-GWINN   CLOUDY    57  51  82 CALM      30.13F
$$
MIZ001>003-009>011-084-020500-
WESTERN UPPER MICHIGAN

CITY           SKY/WX    TMP DP  RH WIND       PRES   REMARKS
IRON MOUNTAIN  PTCLDY    63  53  70 CALM      30.11S
HOUGHTON       CLEAR     55  48  77 E6        30.12S
COPPER HARBOR    N/A     58  50  75 SW9       30.10S
IRONWOOD       CLEAR     54  52  94 E3        30.10S
$$

ABBREVIATIONS USED IN REMARKS
   TC - TEMPERATURE IN CELSIUS
  WCI - WIND CHILL INDEX
   HX - HEAT INDEX
  VSB - VISIBILITY



USA.gov is the U.S. government's official web portal to all federal, state and local government web resources and services.